[[{"header":{"parameterUnit":"m.s-1","parameterCategory":1,"la1":30.2991,"la2":30.254,"lo1":-89.0895,"lo2":-89.0444,"dy":0.0017,"dx":0.0017,"nx":28,"ny":28,"refTime":"2023-04-08T21:00:00:Z","depth":0,"parameterNumber":2,"parameterNumberName":"U-component_of_WINDS"},"data":[0,0,0,0,0,0,0,0,0,0,0,0,0,0,0,0,0,0,0,0,0,0,0,0,0,0,0,0,0,0,0,0,0,0,0,0,0,0,0,0,0,0,0,0,0,0,0,0,0,0,0,0,0,0,0,0,0,0,-2.4783,-2.4785,0,-2.4972,-2.4974,-2.4976,-2.4969,-2.4967,-2.4964,-2.4962,-2.5158,-2.5165,-2.5173,0,0,0,0,0,0,0,0,0,0,0,0,0,-2.4417,-2.4424,-2.4783,-2.4785,-2.4788,-2.4972,-2.4974,-2.4977,-2.497,-2.4967,-2.4963,-2.496,-2.5155,-2.5164,-2.5174,0,0,0,0,0,0,0,0,0,0,0,0,0,-2.4588,-2.4426,-2.4782,-2.4806,-2.481,-2.4971,-2.4974,-2.4977,-2.4971,-2.4967,-2.4963,-2.4959,-2.5152,-2.5164,-2.5175,-2.5325,0,0,-2.521,-2.5215,0,0,0,0,0,0,0,0,-2.4578,-2.4601,-2.48,-2.4805,-2.481,-2.4943,-2.4917,-2.5094,-2.4972,-2.491,-2.4962,-2.4957,-2.509,-2.5106,-2.515,-2.5335,-2.5343,-2.5211,-2.5218,-2.5223,-2.5226,0,0,0,0,0,0,0,-2.4566,-2.4593,-2.4858,-2.4803,-2.4809,-2.4808,-2.4828,-2.4951,-2.502,-2.4915,-2.4915,-2.4937,-2.5092,-2.5139,-2.5155,-2.5346,-2.5211,-2.5221,-2.5228,-2.5233,-2.5661,-2.5666,0,0,0,0,0,0,-2.4549,-2.4583,-2.4852,-2.4863,-2.4682,-2.4818,-2.484,-2.4904,-2.5018,-2.5032,-2.494,-2.4936,-2.5122,-2.5142,-2.5162,-2.5345,-2.5223,-2.5234,-2.5241,-2.5657,-2.5662,-2.5667,0,0,0,0,0,0,-2.4541,-2.4573,-2.4844,-2.4723,-2.4758,-2.4828,-2.49,-2.491,-2.4958,-2.5038,-2.505,-2.4976,-2.5119,-2.5146,-2.5284,-2.5351,-2.5239,-2.525,-2.5652,-2.5659,-2.5665,-2.5712,0,0,0,0,0,0,-2.4531,-2.457,-2.4628,-2.4725,-2.4764,-2.4963,-2.4905,-2.4917,-2.4977,-2.4974,-2.5075,-2.5088,-2.5118,-2.5267,-2.5296,-2.5365,-2.5259,-2.5646,-2.5655,-2.5663,-2.5705,-2.5719,-2.5732,0,0,0,0,0,-2.4518,-2.4635,-2.4631,-2.4664,-2.4838,-2.4967,-2.499,-2.5022,-2.4983,-2.5042,-2.5092,-2.5084,-2.5339,-2.5281,-2.5314,-2.5388,-2.5642,-2.5652,-2.5662,-2.5699,-2.5716,-2.5732,0,0,0,0,0,0,-2.4546,-2.4648,-2.4645,-2.4797,-2.4873,-2.4966,-2.5041,-2.504,-2.513,-2.5122,-2.5159,-2.5182,-2.532,-2.5368,-2.5301,-2.5538,-2.5486,-2.5503,-2.5502,-2.552,-2.5534,-2.552,-2.5268,0,0,0,0,0,-2.4569,-2.4665,-2.475,-2.4875,-2.4914,-2.497,-2.5028,-2.5046,-2.5127,-2.5159,-2.522,-2.53,-2.5397,-2.5461,-2.5556,-2.5711,-2.5733,-2.5778,-2.5791,-2.5802,-2.5817,-2.5901,-2.5922,-2.57,-2.57,-2.57,0,0,-2.462,-2.4687,-2.4746,-2.4883,-2.4944,-2.5042,-2.4998,-2.5104,-2.5178,-2.5176,-2.531,-2.5357,-2.5448,-2.5595,-2.5663,-2.5639,-2.5882,-2.5815,-2.5823,-2.5832,-2.5914,-2.5935,-2.5953,-2.5707,-2.5706,-2.5705,0,0,-2.4762,-2.4823,-2.4933,-2.4995,-2.5088,-2.5124,-2.5151,-2.5243,-2.5274,-2.5409,-2.5409,-2.5497,-2.5665,-2.573,-2.5784,-2.5948,-2.5944,-2.5978,-2.605,-2.6132,-2.6149,-2.6165,-2.6223,-2.6243,-2.5992,-2.5992,-2.5992,0,-2.4813,-2.4961,-2.4991,-2.5098,-2.5157,-2.5158,-2.527,-2.5329,-2.5448,-2.549,-2.546,-2.567,-2.5731,-2.5893,-2.5933,-2.5977,-2.6008,-2.5967,-2.6144,-2.616,-2.6175,-2.6231,-2.6253,-2.5995,-2.5995,-2.5995,-2.5994,0,-2.5019,-2.5121,-2.52,-2.5313,-2.5382,-2.5491,-2.5537,-2.5603,-2.5614,-2.5654,-2.5791,-2.5864,-2.5972,-2.6012,-2.6025,-2.6176,-2.6157,-2.6136,-2.6084,-2.6199,-2.6252,-2.6274,-2.6,-2.5999,-2.5998,-2.5997,0,0,-2.5186,-2.5313,-2.5341,-2.5392,-2.5493,-2.5573,-2.5681,-2.5786,-2.5842,-2.5923,-2.6015,-2.6156,-2.6136,-2.6198,-2.6218,-2.629,-2.6414,-2.6259,-2.6262,-2.6285,-2.6584,-2.66,-2.6624,-2.6411,-2.6416,-2.6419,-2.6576,0,-2.5339,-2.553,-2.5559,-2.5729,-2.5823,-2.5824,-2.5918,-2.5991,-2.603,-2.6116,-2.616,-2.6259,-2.6226,-2.6263,-2.6334,-2.6384,-2.6475,-2.6373,-2.6498,-2.6502,-2.6475,-2.6652,-2.6669,-2.6814,-2.6597,-2.6601,-2.6603,0,-2.5543,-2.5628,-2.5806,-2.5892,-2.5933,-2.6018,-2.6115,-2.6198,-2.6279,-2.6303,-2.6371,-2.6381,-2.6494,-2.6436,-2.6591,-2.6521,-2.6574,-2.6606,-2.6612,-2.6626,-2.656,-2.667,-2.6861,-2.6883,-2.6636,-2.6634,-2.6631,0,-2.5646,-2.5805,-2.5932,-2.5976,-2.608,-2.6139,-2.6185,-2.6263,-2.6324,-2.6409,-2.6449,-2.6546,-2.66,-2.6676,-2.6712,-2.6667,-2.6865,-2.681,-2.6888,-2.6887,-2.6931,-2.6928,-2.7133,-2.6964,-2.6964,-2.6963,-2.6963,0,-2.5814,-2.5923,-2.598,-2.6058,-2.618,-2.6212,-2.6331,-2.6376,-2.6445,-2.6531,-2.6538,-2.662,-2.6663,-2.6751,-2.678,-2.6904,-2.6928,-2.695,-2.6957,-2.695,-2.6947,-2.6986,-2.6977,-2.6969,-2.6968,-2.6967,-2.6966,0,-2.595,-2.5993,-2.6131,-2.6218,-2.6242,-2.6328,-2.6402,-2.6478,-2.6516,-2.6625,-2.6653,-2.6713,-2.6817,-2.686,-2.6988,-2.7007,-2.7149,-2.7148,-2.7122,-2.7124,-2.7199,-2.7191,-2.7437,-2.747,-2.7279,-2.728,-2.7282,0,-2.6055,-2.6138,-2.6233,-2.6291,-2.6338,-2.6432,-2.6493,-2.6527,-2.6591,-2.6689,-2.6753,-2.6856,-2.694,-2.7106,-2.7161,-2.7259,-2.726,-2.7339,-2.7275,-2.7265,-2.7261,-2.7256,-2.7264,-2.7351,-2.7353,-2.7355,-2.7356,0,-2.6235,-2.6251,-2.6339,-2.6434,-2.6506,-2.6583,-2.6658,-2.6705,-2.6751,-2.6822,-2.6927,-2.6992,-2.7121,-2.7224,-2.7324,-2.7372,-2.7372,-2.7376,-2.7399,-2.7393,-2.7374,-2.7385,-2.7154,-2.737,-2.7369,-2.7368,-2.7367,-2.7366,-2.6359,-2.6433,-2.651,-2.6607,-2.6666,-2.6736,-2.6811,-2.6857,-2.6945,-2.7052,-2.7066,-2.7179,-2.7257,-2.7391,-2.7443,-2.7531,-2.7511,-2.7545,-2.7554,-2.7561,-2.7566,-2.7359,-2.755,-2.7549,-2.7549,-2.7549,-2.7549,0,-2.654,-2.6589,-2.6677,-2.6781,-2.6857,-2.6848,-2.693,-2.6995,-2.7093,-2.7165,-2.7247,-2.7367,-2.7466,-2.7528,-2.7628,-2.7687,-2.7689,-2.7712,-2.7708,-2.7719,-2.7578,-2.7548,-2.7708,-2.7708,-2.7708,-2.7708,-2.7708,-2.7708,-2.6643,-2.6766,-2.6791,-2.6944,-2.6993,-2.7102,-2.7149,-2.7213,-2.7271,-2.7404,-2.7485,-2.7525,-2.7593,-2.7697,-2.7787,-2.7803,-2.7839,-2.7863,-2.7878,-2.7745,-2.7729,-2.7713,-2.7685,-2.7871,-2.7871,-2.8011,-2.8012,-2.8013]},{"header":{"parameterUnit":"m.s-1","parameterCategory":1,"la1":30.2991,"la2":30.254,"lo1":-89.0895,"lo2":-89.0444,"dy":0.0017,"dx":0.0017,"nx":28,"ny":28,"refTime":"2023-04-08T21:00:00:Z","depth":0,"parameterNumber":3,"parameterNumberName":"V-component_of_WINDS"},"data":[0,0,0,0,0,0,0,0,0,0,0,0,0,0,0,0,0,0,0,0,0,0,0,0,0,0,0,0,0,0,0,0,0,0,0,0,0,0,0,0,0,0,0,0,0,0,0,0,0,0,0,0,0,0,0,0,0,0,-0.0386,-0.0387,0,-0.0523,-0.0524,-0.0526,-0.0607,-0.0607,-0.0607,-0.0608,-0.0753,-0.0756,-0.076,0,0,0,0,0,0,0,0,0,0,0,0,0,-0.0197,-0.02,-0.0385,-0.0387,-0.0389,-0.0523,-0.0524,-0.0526,-0.0607,-0.0607,-0.0607,-0.0608,-0.0751,-0.0756,-0.076,0,0,0,0,0,0,0,0,0,0,0,0,0,-0.0301,-0.0201,-0.0385,-0.0445,-0.0452,-0.0522,-0.0524,-0.0527,-0.0607,-0.0607,-0.0608,-0.0608,-0.075,-0.0755,-0.0761,-0.0784,0,0,-0.0777,-0.0779,0,0,0,0,0,0,0,0,-0.0295,-0.0308,-0.0434,-0.0441,-0.0449,-0.0548,-0.0511,-0.0613,-0.0606,-0.0548,-0.0608,-0.0608,-0.0684,-0.0695,-0.072,-0.079,-0.0797,-0.0777,-0.0781,-0.0783,-0.0784,0,0,0,0,0,0,0,-0.0287,-0.0302,-0.044,-0.0436,-0.0445,-0.0466,-0.0481,-0.0531,-0.0612,-0.0553,-0.0559,-0.0574,-0.0688,-0.0715,-0.0724,-0.0799,-0.0777,-0.0782,-0.0785,-0.0787,-0.0894,-0.0894,0,0,0,0,0,0,-0.027,-0.0296,-0.0436,-0.0444,-0.0371,-0.0469,-0.0486,-0.0516,-0.0612,-0.0627,-0.0574,-0.0577,-0.0705,-0.0718,-0.0729,-0.0762,-0.0783,-0.0788,-0.0791,-0.0895,-0.0894,-0.0894,0,0,0,0,0,0,-0.0266,-0.0282,-0.043,-0.0372,-0.0392,-0.0472,-0.0504,-0.0518,-0.0544,-0.0627,-0.0642,-0.0585,-0.0706,-0.0722,-0.0769,-0.0768,-0.079,-0.0795,-0.0895,-0.0894,-0.0894,-0.0827,0,0,0,0,0,0,-0.026,-0.028,-0.0288,-0.0371,-0.0395,-0.0466,-0.0504,-0.052,-0.0553,-0.0559,-0.0642,-0.0656,-0.0708,-0.0761,-0.0774,-0.0776,-0.0799,-0.0895,-0.0895,-0.0894,-0.083,-0.0825,-0.082,0,0,0,0,0,-0.0253,-0.0266,-0.0288,-0.0305,-0.0407,-0.0466,-0.048,-0.0537,-0.0552,-0.0562,-0.0615,-0.0654,-0.0766,-0.0765,-0.0781,-0.0784,-0.0896,-0.0895,-0.0894,-0.0832,-0.0826,-0.082,0,0,0,0,0,0,-0.0183,-0.0277,-0.0304,-0.0343,-0.0396,-0.0479,-0.0494,-0.0529,-0.0579,-0.0583,-0.0654,-0.0672,-0.0712,-0.0753,-0.075,-0.0811,-0.0835,-0.0838,-0.0783,-0.0777,-0.0772,-0.0761,-0.0804,0,0,0,0,0,-0.0171,-0.021,-0.0291,-0.0318,-0.0343,-0.0413,-0.0441,-0.0481,-0.0539,-0.0562,-0.0618,-0.0674,-0.0722,-0.0752,-0.0801,-0.0836,-0.0856,-0.0847,-0.0842,-0.0837,-0.0838,-0.086,-0.0857,-0.0891,-0.0891,-0.0891,0,0,-0.0149,-0.0206,-0.0226,-0.0305,-0.0351,-0.0389,-0.0432,-0.0471,-0.0501,-0.0568,-0.0615,-0.0659,-0.0726,-0.0767,-0.0788,-0.0802,-0.0833,-0.0836,-0.0832,-0.0836,-0.0859,-0.0855,-0.0852,-0.0891,-0.0891,-0.0891,0,0,-0.0129,-0.0175,-0.0202,-0.0246,-0.0313,-0.036,-0.0366,-0.0444,-0.0475,-0.0523,-0.0574,-0.0611,-0.0692,-0.0737,-0.0771,-0.0766,-0.0803,-0.078,-0.0754,-0.0774,-0.0771,-0.0769,-0.0767,-0.0765,-0.0781,-0.0781,-0.0781,0,-0.0093,-0.0152,-0.0212,-0.0248,-0.0282,-0.0342,-0.037,-0.0411,-0.0491,-0.0513,-0.0527,-0.063,-0.0679,-0.0731,-0.073,-0.0755,-0.0765,-0.0771,-0.0766,-0.0765,-0.0764,-0.0763,-0.0762,-0.0777,-0.0778,-0.0778,-0.0778,0,-0.0105,-0.0145,-0.0159,-0.0233,-0.0268,-0.03,-0.0365,-0.0394,-0.043,-0.0476,-0.0524,-0.0585,-0.0647,-0.0662,-0.0699,-0.072,-0.0726,-0.0753,-0.0778,-0.0756,-0.0756,-0.0756,-0.0773,-0.0774,-0.0775,-0.0776,0,0,-0.0045,-0.0149,-0.0153,-0.0187,-0.0265,-0.0298,-0.0333,-0.0391,-0.0414,-0.0467,-0.0499,-0.0565,-0.059,-0.0628,-0.0671,-0.0688,-0.0679,-0.0713,-0.0715,-0.0704,-0.0705,-0.0684,-0.0682,-0.0704,-0.0704,-0.0705,-0.0699,0,-0.0035,-0.0098,-0.0153,-0.0197,-0.0235,-0.0292,-0.0323,-0.0374,-0.0417,-0.0457,-0.0506,-0.0551,-0.058,-0.0603,-0.0623,-0.0676,-0.068,-0.0677,-0.0735,-0.0736,-0.0715,-0.0683,-0.0661,-0.0653,-0.07,-0.07,-0.07,0,-0.0032,-0.008,-0.0127,-0.02,-0.0218,-0.0244,-0.0302,-0.0338,-0.0398,-0.0429,-0.047,-0.0514,-0.0555,-0.0576,-0.0633,-0.0629,-0.0656,-0.0686,-0.0687,-0.0694,-0.0716,-0.0688,-0.0652,-0.065,-0.07,-0.07,-0.07,0,0.0018,-0.0059,-0.0097,-0.0124,-0.021,-0.0227,-0.0264,-0.0324,-0.0356,-0.0407,-0.0428,-0.0483,-0.0514,-0.0556,-0.0614,-0.0625,-0.0665,-0.0691,-0.0692,-0.069,-0.0698,-0.0696,-0.0664,-0.0715,-0.0715,-0.0715,-0.0715,0,0.0035,0.0008,-0.0076,-0.0099,-0.013,-0.0193,-0.0222,-0.0265,-0.0318,-0.0351,-0.0405,-0.0435,-0.0511,-0.055,-0.0596,-0.0636,-0.065,-0.0676,-0.0688,-0.0671,-0.0667,-0.0689,-0.0691,-0.0715,-0.0715,-0.0715,-0.0715,0,0.0085,0.0028,-0.0017,-0.0094,-0.0114,-0.0133,-0.02,-0.0225,-0.0271,-0.0312,-0.0326,-0.0398,-0.0447,-0.051,-0.058,-0.0611,-0.0645,-0.0664,-0.0624,-0.0631,-0.0628,-0.0627,-0.0608,-0.0608,-0.0659,-0.0659,-0.0658,0,0.01,0.0079,0.0,-0.0024,-0.0059,-0.0099,-0.0131,-0.0193,-0.0224,-0.0293,-0.031,-0.0363,-0.0409,-0.0486,-0.0545,-0.0599,-0.0619,-0.0609,-0.0628,-0.0609,-0.0618,-0.0616,-0.0618,-0.0604,-0.0603,-0.0602,-0.0601,0,0.0133,0.0106,0.0064,0.0012,-0.0023,-0.0068,-0.0115,-0.0133,-0.0206,-0.0238,-0.0288,-0.0323,-0.0393,-0.0445,-0.0506,-0.0547,-0.0586,-0.0595,-0.0598,-0.058,-0.0556,-0.0568,-0.061,-0.0595,-0.0596,-0.0596,-0.0597,-0.0597,0.0166,0.0145,0.0087,0.0042,0.0001,-0.0042,-0.0068,-0.0116,-0.0159,-0.0219,-0.0254,-0.0303,-0.0362,-0.0448,-0.0486,-0.0526,-0.0541,-0.0545,-0.0546,-0.0546,-0.054,-0.055,-0.0538,-0.0538,-0.0538,-0.0539,-0.0539,0,0.0197,0.0157,0.0117,0.0054,0.0018,-0.0014,-0.0068,-0.0096,-0.0137,-0.0188,-0.0231,-0.0288,-0.0339,-0.0402,-0.0457,-0.0477,-0.0497,-0.0489,-0.0488,-0.0497,-0.0524,-0.0516,-0.0473,-0.0473,-0.0473,-0.0473,-0.0473,-0.0473,0.0209,0.0172,0.0139,0.0081,0.004,-0.0006,-0.0034,-0.0073,-0.0114,-0.0175,-0.0216,-0.0256,-0.0312,-0.0372,-0.042,-0.0438,-0.0455,-0.0442,-0.0465,-0.0489,-0.0495,-0.0501,-0.0493,-0.0446,-0.0446,-0.0434,-0.0434,-0.0434]}]]